| time (UTC) | temp F | wind direction | speed knots | gust knots | rain 1hr in | rain 24hr in | rain mn in | humidity % | barometer mb |
| 20260905184415 | 72 | 191 | 2.6 | 5.2 | 0.00 | 0.00 | 0.00 | 74 | 1013.0 |
| 20260905183915 | 72 | 197 | 2.6 | 4.3 | 0.00 | 0.00 | 0.00 | 74 | 1013.1 |
| 20260905183415 | 72 | 196 | 1.7 | 4.3 | 0.00 | 0.00 | 0.00 | 74 | 1013.1 |
| 20260905182913 | 73 | 178 | 0.9 | 4.3 | 0.00 | 0.00 | 0.00 | 73 | 1013.1 |
| 20260905182413 | 73 | 196 | 0.0 | 2.6 | 0.00 | 0.00 | 0.00 | 75 | 1013.0 |
| 20260905181413 | 73 | 221 | 0.0 | 2.6 | 0.00 | 0.00 | 0.00 | 74 | 1013.0 |
| 20260905180912 | 73 | 175 | 0.0 | 0.0 | 0.00 | 0.00 | 0.00 | 78 | 1013.0 |
| 20260905175911 | 73 | 355 | 0.9 | 4.3 | 0.00 | 0.00 | 0.00 | 75 | 1013.2 |
| 20260905174911 | 75 | 190 | 0.0 | 3.5 | 0.00 | 0.00 | 0.00 | 73 | 1013.3 |
| 20260905174410 | 75 | 185 | 0.0 | 0.0 | 0.00 | 0.00 | 0.00 | 72 | 1013.3 |
| 20260905173911 | 75 | 246 | 0.0 | 2.6 | 0.00 | 0.00 | 0.00 | 72 | 1013.4 |
| 20260905173411 | 76 | 221 | 0.0 | 2.6 | 0.00 | 0.00 | 0.00 | 75 | 1013.4 |
| 20260905172907 | 75 | 225 | 0.0 | 0.9 | 0.00 | 0.00 | 0.00 | 75 | 1013.4 |
| 20260905172408 | 75 | 49 | 0.0 | 0.0 | 0.00 | 0.00 | 0.00 | 77 | 1013.5 |
| 20260905171907 | 74 | 267 | 0.0 | 2.6 | 0.00 | 0.00 | 0.00 | 77 | 1013.5 |
| 20260905171407 | 74 | 174 | 0.0 | 2.6 | 0.00 | 0.00 | 0.00 | 77 | 1013.5 |
| 20260905165907 | 74 | 316 | 0.0 | 0.0 | 0.00 | 0.00 | 0.00 | 80 | 1013.7 |
| 20260905165407 | 73 | 5 | 0.0 | 0.9 | 0.00 | 0.00 | 0.00 | 80 | 1013.6 |
| 20260905164907 | 72 | 175 | 0.0 | 0.9 | 0.00 | 0.00 | 0.00 | 81 | 1013.6 |
| 20260905163903 | 71 | 273 | 0.0 | 0.9 | 0.00 | 0.00 | 0.00 | 85 | 1013.7 |
| 20260905163403 | 70 | 208 | 0.0 | 3.5 | 0.00 | 0.00 | 0.00 | 84 | 1013.7 |
| 20260905162903 | 69 | 5 | 0.9 | 6.1 | 0.00 | 0.00 | 0.00 | 83 | 1013.8 |
| 20260905162403 | 69 | 22 | 0.9 | 6.1 | 0.00 | 0.00 | 0.00 | 81 | 1013.8 |
| 20260905161904 | 70 | 24 | 0.0 | 0.0 | 0.00 | 0.00 | 0.00 | 81 | 1013.8 |
| 20260905160904 | 70 | 30 | 0.0 | 0.0 | 0.00 | 0.00 | 0.00 | 83 | 1013.7 |
| 20260905160403 | 69 | 343 | 0.0 | 2.6 | 0.00 | 0.00 | 0.00 | 89 | 1013.6 |
| 20260905155900 | 68 | 5 | 0.0 | 3.5 | 0.00 | 0.00 | 0.00 | 87 | 1013.7 |
| 20260905155358 | 68 | 348 | 0.0 | 3.5 | 0.00 | 0.00 | 0.00 | 87 | 1013.8 |
| 20260905154859 | 68 | 5 | 0.0 | 1.7 | 0.00 | 0.00 | 0.00 | 86 | 1013.8 |
| 20260905154359 | 67 | 355 | 0.0 | 1.7 | 0.00 | 0.00 | 0.00 | 88 | 1013.8 |
| 20260905153859 | 67 | 19 | 0.0 | 0.0 | 0.00 | 0.00 | 0.00 | 87 | 1013.8 |
| 20260905152859 | 67 | 339 | 0.0 | 0.0 | 0.00 | 0.00 | 0.00 | 88 | 1013.9 |
| 20260905152357 | 67 | 5 | 0.0 | 0.0 | 0.00 | 0.00 | 0.00 | 89 | 1013.9 |
| 20260905151855 | 67 | 323 | 0.0 | 0.0 | 0.00 | 0.00 | 0.00 | 88 | 1013.9 |
| 20260905151355 | 66 | 348 | 0.0 | 0.0 | 0.00 | 0.00 | 0.00 | 89 | 1013.8 |
| 20260905150854 | 66 | 11 | 0.0 | 1.7 | 0.00 | 0.00 | 0.00 | 88 | 1013.9 |
| 20260905145849 | 66 | 19 | 0.0 | 4.3 | 0.00 | 0.00 | 0.00 | 88 | 1013.9 |
| 20260905144849 | 66 | 5 | 0.9 | 3.5 | 0.00 | 0.00 | 0.00 | 88 | 1013.8 |
| 20260905143847 | 66 | 31 | 0.0 | 0.9 | 0.00 | 0.00 | 0.00 | 89 | 1013.8 |
| 20260905143345 | 66 | 0 | 0.0 | 0.9 | 0.00 | 0.00 | 0.00 | 89 | 1013.9 |
| 20260905142845 | 66 | 12 | 0.0 | 0.0 | 0.00 | 0.00 | 0.00 | 89 | 1013.9 |
| 20260905141842 | 66 | 20 | 0.0 | 2.6 | 0.00 | 0.00 | 0.00 | 90 | 1013.9 |
| 20260905141343 | 65 | 22 | 0.0 | 2.6 | 0.00 | 0.00 | 0.00 | 90 | 1013.8 |
| 20260905140842 | 65 | 355 | 0.0 | 0.0 | 0.00 | 0.00 | 0.00 | 91 | 1013.8 |
| 20260905140341 | 65 | 5 | 0.0 | 0.0 | 0.00 | 0.00 | 0.00 | 91 | 1013.8 |
| 20260905135837 | 65 | 5 | 0.0 | 0.0 | 0.00 | 0.00 | 0.00 | 91 | 1013.8 |
| 20260905135337 | 65 | 5 | 0.0 | 0.0 | 0.00 | 0.00 | 0.00 | 92 | 1013.9 |
| 20260905134834 | 64 | 0 | 0.0 | 0.0 | 0.00 | 0.00 | 0.00 | 92 | 1013.9 |
| 20260905134334 | 64 | 340 | 0.0 | 1.7 | 0.00 | 0.00 | 0.00 | 92 | 1013.9 |
| 20260905133830 | 64 | 327 | 0.9 | 4.3 | 0.00 | 0.00 | 0.00 | 92 | 1013.9 |
| 20260905132830 | 64 | 355 | 0.0 | 4.3 | 0.00 | 0.00 | 0.00 | 92 | 1013.9 |
| 20260905132329 | 64 | 5 | 0.0 | 0.0 | 0.00 | 0.00 | 0.00 | 92 | 1013.7 |
| 20260905131328 | 63 | 355 | 0.9 | 6.1 | 0.00 | 0.00 | 0.00 | 93 | 1013.7 |
| 20260905130829 | 63 | 348 | 0.0 | 6.1 | 0.00 | 0.00 | 0.00 | 93 | 1013.7 |
| 20260905130329 | 63 | 26 | 0.9 | 3.5 | 0.00 | 0.00 | 0.00 | 94 | 1013.7 |
| 20260905125827 | 63 | 9 | 0.9 | 3.5 | 0.00 | 0.00 | 0.00 | 94 | 1013.6 |
| 20260905125326 | 62 | 350 | 0.0 | 2.6 | 0.00 | 0.00 | 0.00 | 94 | 1013.6 |
| 20260905124827 | 62 | 10 | 0.0 | 2.6 | 0.00 | 0.00 | 0.00 | 94 | 1013.6 |
| 20260905124325 | 62 | 5 | 0.0 | 4.3 | 0.00 | 0.00 | 0.00 | 95 | 1013.5 |
| 20260905123824 | 62 | 12 | 0.0 | 4.3 | 0.00 | 0.00 | 0.00 | 95 | 1013.5 |
| 20260905122823 | 61 | 15 | 1.7 | 10.4 | 0.00 | 0.00 | 0.00 | 95 | 1013.4 |
| 20260905121316 | 61 | 0 | 2.6 | 7.0 | 0.00 | 0.00 | 0.00 | 96 | 1013.2 |
| 20260905120809 | 61 | 22 | 1.7 | 7.8 | 0.00 | 0.00 | 0.00 | 96 | 1013.2 |
| 20260905120304 | 60 | 17 | 1.7 | 7.8 | 0.00 | 0.00 | 0.00 | 96 | 1013.2 |
| 20260905115758 | 60 | 5 | 0.9 | 5.2 | 0.00 | 0.00 | 0.00 | 96 | 1013.1 |
| 20260905115252 | 60 | 355 | 0.9 | 7.0 | 0.00 | 0.00 | 0.00 | 96 | 1013.0 |
| 20260905114748 | 60 | 355 | 0.0 | 7.0 | 0.00 | 0.00 | 0.00 | 96 | 1012.9 |
| 20260905113734 | 60 | 355 | 0.9 | 6.1 | 0.00 | 0.00 | 0.00 | 95 | 1012.9 |
| 20260905112722 | 59 | 339 | 1.7 | 6.1 | 0.00 | 0.00 | 0.00 | 95 | 1012.7 |
| 20260905112220 | 59 | 5 | 0.9 | 6.1 | 0.00 | 0.00 | 0.00 | 95 | 1012.7 |
| 20260905111721 | 59 | 330 | 0.9 | 5.2 | 0.00 | 0.00 | 0.00 | 95 | 1012.6 |
| 20260905111218 | 59 | 346 | 0.0 | 5.2 | 0.00 | 0.00 | 0.00 | 95 | 1012.5 |
| 20260905110718 | 0 | 0.0 | 0.0 | 0.00 | 0.00 | 0.00 | 1012.5 | ||
| 20260905110127 | 0 | 0.0 | 0.0 | 0.00 | 0.00 | 0.00 | 1012.5 | ||
| 20260905105024 | 0 | 0.0 | 0.0 | 0.00 | 0.00 | 0.00 | 1012.4 | ||
| 20260905104514 | 0 | 0.0 | 0.0 | 0.00 | 0.00 | 0.00 | 1012.3 | ||
| 20260905103923 | 0 | 0.0 | 0.0 | 0.00 | 0.00 | 0.00 | 1012.3 | ||
| 20260905103417 | 0 | 0.0 | 0.0 | 0.00 | 0.00 | 0.00 | 1012.3 | ||
| 20260905102915 | 0 | 0.0 | 0.0 | 0.00 | 0.00 | 0.00 | 1012.3 | ||
| 20260905102321 | 0 | 0.0 | 0.0 | 0.00 | 0.00 | 0.00 | 1012.2 | ||
| 20260905101820 | 0 | 0.0 | 0.0 | 0.00 | 0.00 | 0.00 | 1012.2 | ||
| 20260905101320 | 0 | 0.0 | 0.0 | 0.00 | 0.00 | 0.00 | 1012.2 | ||
| 20260905100818 | 0 | 0.0 | 0.0 | 0.00 | 0.00 | 0.00 | 1012.1 | ||
| 20260905095704 | 0 | 0.0 | 0.0 | 0.00 | 0.00 | 0.00 | 1012.1 | ||
| 20260905095123 | 0 | 0.0 | 0.0 | 0.00 | 0.00 | 0.00 | 1012.0 | ||
| 20260905094621 | 0 | 0.0 | 0.0 | 0.00 | 0.00 | 0.00 | 1012.1 | ||
| 20260905094119 | 0 | 0.0 | 0.0 | 0.00 | 0.00 | 0.00 | 1012.1 | ||
| 20260905093023 | 0 | 0.0 | 0.0 | 0.00 | 0.00 | 0.00 | 1012.1 | ||
| 20260905092517 | 0 | 0.0 | 0.0 | 0.00 | 0.00 | 0.00 | 1012.1 | ||
| 20260905091924 | 0 | 0.0 | 0.0 | 0.00 | 0.00 | 0.00 | 1012.0 | ||
| 20260905091419 | 0 | 0.0 | 0.0 | 0.00 | 0.00 | 0.00 | 1012.1 | ||
| 20260905090916 | 0 | 0.0 | 0.0 | 0.00 | 0.00 | 0.00 | 1012.1 | ||
| 20260905090323 | 0 | 0.0 | 0.0 | 0.00 | 0.00 | 0.00 | 1012.0 | ||
| 20260905085820 | 0 | 0.0 | 0.0 | 0.00 | 0.00 | 0.00 | 1012.1 | ||
| 20260905084720 | 0 | 0.0 | 0.0 | 0.00 | 0.00 | 0.00 | 1012.0 | ||
| 20260905084215 | 0 | 0.0 | 0.0 | 0.00 | 0.00 | 0.00 | 1012.1 | ||
| 20260905083650 | 0 | 0.0 | 0.0 | 0.00 | 0.00 | 0.00 | 1012.1 | ||
| 20260905083106 | 0 | 0.0 | 0.0 | 0.00 | 0.00 | 0.00 | 1012.1 | ||
| 20260905081413 | 0 | 0.0 | 0.0 | 0.00 | 0.00 | 0.00 | 1012.0 | ||
| 20260905080817 | 62 | 355 | 0.0 | 0.0 | 0.00 | 0.00 | 0.00 | 93 | 1011.9 |
| 20260905080316 | 62 | 355 | 0.0 | 0.0 | 0.00 | 0.00 | 0.00 | 93 | 1011.9 |
| 20260905075808 | 62 | 355 | 0.0 | 0.0 | 0.00 | 0.00 | 0.00 | 93 | 1011.9 |
| 20260905074758 | 62 | 355 | 0.0 | 0.0 | 0.00 | 0.00 | 0.00 | 93 | 1011.9 |
| 20260905074256 | 62 | 355 | 0.0 | 0.0 | 0.00 | 0.00 | 0.00 | 93 | 1011.9 |
| 20260905073756 | 62 | 355 | 0.0 | 0.0 | 0.00 | 0.00 | 0.00 | 93 | 1011.9 |
| 20260905073257 | 62 | 355 | 0.0 | 0.0 | 0.00 | 0.00 | 0.00 | 93 | 1011.9 |
| 20260905072754 | 62 | 355 | 0.0 | 0.0 | 0.00 | 0.00 | 0.00 | 93 | 1011.9 |
| 20260905072252 | 62 | 0 | 0.0 | 0.0 | 0.00 | 0.00 | 0.00 | 93 | 1011.9 |
| 20260905071752 | 62 | 0 | 0.0 | 0.0 | 0.00 | 0.00 | 0.00 | 92 | 1011.9 |
| 20260905070748 | 62 | 5 | 0.0 | 0.0 | 0.00 | 0.00 | 0.00 | 92 | 1011.8 |
| 20260905070246 | 62 | 0 | 0.0 | 0.0 | 0.00 | 0.00 | 0.00 | 92 | 1011.8 |
| 20260905065746 | 62 | 9 | 0.0 | 0.0 | 0.00 | 0.00 | 0.00 | 92 | 1011.7 |
| 20260905065247 | 62 | 355 | 0.0 | 0.0 | 0.00 | 0.00 | 0.00 | 92 | 1011.8 |
| 20260905064746 | 62 | 9 | 0.0 | 0.0 | 0.00 | 0.00 | 0.00 | 92 | 1011.8 |
| 20260905064247 | 62 | 348 | 0.0 | 0.0 | 0.00 | 0.00 | 0.00 | 91 | 1011.8 |
| 20260905063747 | 63 | 355 | 0.0 | 0.0 | 0.00 | 0.00 | 0.00 | 91 | 1011.9 |
| 20260905062242 | 63 | 0 | 0.0 | 0.9 | 0.00 | 0.00 | 0.00 | 91 | 1012.0 |
| 20260905061743 | 63 | 5 | 0.0 | 0.9 | 0.00 | 0.00 | 0.00 | 91 | 1012.0 |
| 20260905061242 | 63 | 5 | 0.0 | 0.0 | 0.00 | 0.00 | 0.00 | 91 | 1011.9 |
| 20260905060740 | 63 | 0 | 0.0 | 0.0 | 0.00 | 0.00 | 0.00 | 91 | 1011.9 |
| 20260905060240 | 63 | 9 | 0.0 | 0.0 | 0.00 | 0.00 | 0.00 | 90 | 1011.9 |
| 20260905055741 | 63 | 355 | 0.0 | 0.0 | 0.00 | 0.00 | 0.00 | 90 | 1011.9 |
| 20260905054739 | 63 | 0 | 0.0 | 0.0 | 0.00 | 0.00 | 0.00 | 90 | 1012.0 |
| 20260905054240 | 63 | 0 | 0.0 | 0.0 | 0.00 | 0.00 | 0.00 | 90 | 1012.1 |
| 20260905053740 | 64 | 0 | 0.0 | 0.0 | 0.00 | 0.00 | 0.00 | 90 | 1012.1 |
| 20260905052741 | 64 | 10 | 0.0 | 0.0 | 0.00 | 0.00 | 0.00 | 90 | 1012.1 |
| 20260905052240 | 64 | 5 | 0.0 | 0.0 | 0.00 | 0.00 | 0.00 | 90 | 1012.2 |
| 20260905051736 | 64 | 5 | 0.0 | 0.0 | 0.00 | 0.00 | 0.00 | 90 | 1012.2 |
| 20260905051237 | 64 | 355 | 0.0 | 0.0 | 0.00 | 0.00 | 0.00 | 89 | 1012.2 |
| 20260905045236 | 64 | 5 | 0.0 | 0.0 | 0.00 | 0.00 | 0.00 | 89 | 1012.4 |
| 20260905044736 | 64 | 9 | 0.0 | 0.0 | 0.00 | 0.00 | 0.00 | 89 | 1012.3 |
| 20260905044236 | 64 | 0 | 0.0 | 0.0 | 0.00 | 0.00 | 0.00 | 88 | 1012.3 |
| 20260905043232 | 64 | 9 | 0.0 | 0.0 | 0.00 | 0.00 | 0.00 | 88 | 1012.2 |
| 20260905042232 | 64 | 0 | 0.0 | 0.0 | 0.00 | 0.00 | 0.00 | 87 | 1012.2 |
| 20260905041733 | 64 | 0 | 0.0 | 0.0 | 0.00 | 0.00 | 0.00 | 87 | 1012.2 |
| 20260905041232 | 64 | 355 | 0.0 | 0.0 | 0.00 | 0.00 | 0.00 | 87 | 1012.1 |
| 20260905040732 | 65 | 355 | 0.0 | 0.0 | 0.00 | 0.00 | 0.00 | 87 | 1012.2 |
| 20260905040232 | 65 | 355 | 0.0 | 0.0 | 0.00 | 0.00 | 0.00 | 87 | 1012.2 |
| 20260905035232 | 65 | 355 | 0.0 | 0.0 | 0.00 | 0.00 | 0.00 | 86 | 1012.2 |
| 20260905034732 | 65 | 5 | 0.0 | 0.0 | 0.00 | 0.00 | 0.00 | 86 | 1012.2 |
| 20260905034232 | 65 | 0 | 0.0 | 0.0 | 0.00 | 0.00 | 0.00 | 86 | 1012.2 |
| 20260905033732 | 65 | 0 | 0.0 | 0.0 | 0.00 | 0.00 | 0.00 | 86 | 1012.3 |
| 20260905033232 | 65 | 5 | 0.0 | 0.0 | 0.00 | 0.00 | 0.00 | 86 | 1012.3 |
| 20260905032232 | 65 | 12 | 0.0 | 0.0 | 0.00 | 0.00 | 0.00 | 86 | 1012.3 |
| 20260905031228 | 65 | 9 | 0.0 | 0.0 | 0.00 | 0.00 | 0.00 | 85 | 1012.4 |
| 20260905030726 | 65 | 351 | 0.0 | 0.0 | 0.00 | 0.00 | 0.00 | 85 | 1012.3 |
| 20260905030225 | 65 | 355 | 0.0 | 0.0 | 0.00 | 0.00 | 0.00 | 85 | 1012.4 |
| 20260905025725 | 65 | 339 | 0.0 | 0.0 | 0.00 | 0.00 | 0.00 | 85 | 1012.5 |
| 20260905025226 | 65 | 339 | 0.0 | 0.0 | 0.00 | 0.00 | 0.00 | 85 | 1012.5 |
| 20260905024725 | 65 | 18 | 0.0 | 0.0 | 0.00 | 0.00 | 0.00 | 85 | 1012.5 |
| 20260905024223 | 65 | 23 | 0.0 | 0.0 | 0.00 | 0.00 | 0.00 | 85 | 1012.5 |
| 20260905023224 | 66 | 351 | 0.0 | 0.0 | 0.00 | 0.00 | 0.00 | 85 | 1012.5 |
| 20260905022722 | 66 | 355 | 0.0 | 0.0 | 0.00 | 0.00 | 0.00 | 85 | 1012.5 |
| 20260905022218 | 66 | 355 | 0.0 | 0.0 | 0.00 | 0.00 | 0.00 | 85 | 1012.5 |
| 20260905021718 | 66 | 351 | 0.0 | 0.0 | 0.00 | 0.00 | 0.00 | 85 | 1012.5 |
| 20260905021220 | 66 | 0 | 0.0 | 0.0 | 0.00 | 0.00 | 0.00 | 85 | 1012.5 |
| 20260905020718 | 66 | 0 | 0.0 | 0.0 | 0.00 | 0.00 | 0.00 | 85 | 1012.6 |
| 20260905020215 | 66 | 5 | 0.0 | 0.0 | 0.00 | 0.00 | 0.00 | 85 | 1012.7 |
| 20260905015712 | 66 | 5 | 0.0 | 0.0 | 0.00 | 0.00 | 0.00 | 85 | 1012.7 |
| 20260905015211 | 66 | 355 | 0.0 | 0.0 | 0.00 | 0.00 | 0.00 | 85 | 1012.7 |
| 20260905014710 | 66 | 0 | 0.0 | 2.6 | 0.00 | 0.00 | 0.00 | 85 | 1012.8 |
| 20260905012655 | 66 | 338 | 0.0 | 0.0 | 0.00 | 0.00 | 0.00 | 85 | 1012.8 |
| 20260905012148 | 66 | 344 | 0.0 | 0.0 | 0.00 | 0.00 | 0.00 | 85 | 1012.9 |
| 20260905011641 | 66 | 0 | 0.0 | 0.0 | 0.00 | 0.00 | 0.00 | 85 | 1012.8 |
| 20260905011141 | 66 | 5 | 0.0 | 0.0 | 0.00 | 0.00 | 0.00 | 84 | 1012.8 |
| 20260905010640 | 66 | 333 | 0.0 | 0.0 | 0.00 | 0.00 | 0.00 | 84 | 1012.8 |
| 20260905005640 | 66 | 355 | 0.0 | 0.9 | 0.00 | 0.00 | 0.00 | 83 | 1012.7 |
| 20260905005138 | 67 | 355 | 0.0 | 0.9 | 0.00 | 0.00 | 0.00 | 83 | 1012.6 |
| 20260905004634 | 67 | 355 | 0.0 | 0.0 | 0.00 | 0.00 | 0.00 | 82 | 1012.6 |
| 20260905004134 | 67 | 355 | 0.0 | 0.0 | 0.00 | 0.00 | 0.00 | 81 | 1012.6 |
| 20260905003633 | 67 | 355 | 0.0 | 0.0 | 0.00 | 0.00 | 0.00 | 81 | 1012.5 |
| 20260905003135 | 67 | 355 | 0.0 | 0.0 | 0.00 | 0.00 | 0.00 | 81 | 1012.3 |
| 20260905002634 | 67 | 355 | 0.0 | 0.0 | 0.00 | 0.00 | 0.00 | 81 | 1012.3 |
| 20260905002134 | 67 | 355 | 0.0 | 0.0 | 0.00 | 0.00 | 0.00 | 80 | 1012.2 |
| 20260905001634 | 67 | 5 | 0.0 | 0.0 | 0.00 | 0.00 | 0.00 | 80 | 1012.3 |
| 20260905001135 | 67 | 355 | 0.0 | 0.0 | 0.00 | 0.00 | 0.00 | 80 | 1012.2 |
| 20260905000634 | 67 | 355 | 0.0 | 0.0 | 0.00 | 0.00 | 0.00 | 79 | 1012.1 |
| 20260904235635 | 68 | 5 | 0.0 | 1.7 | 0.00 | 0.00 | 0.00 | 78 | 1011.9 |
| 20260904235135 | 68 | 5 | 0.0 | 0.9 | 0.00 | 0.00 | 0.00 | 77 | 1011.8 |
| 20260904234634 | 69 | 0 | 0.0 | 0.0 | 0.00 | 0.00 | 0.00 | 76 | 1011.7 |
| 20260904233130 | 69 | 0 | 0.9 | 2.6 | 0.00 | 0.00 | 0.00 | 73 | 1011.6 |
| 20260904232629 | 70 | 5 | 0.0 | 2.6 | 0.00 | 0.00 | 0.00 | 73 | 1011.5 |
| 20260904232128 | 70 | 355 | 0.0 | 6.1 | 0.00 | 0.00 | 0.00 | 72 | 1011.7 |
| 20260904231128 | 71 | 18 | 1.7 | 4.3 | 0.00 | 0.00 | 0.00 | 72 | 1011.6 |
| 20260904230628 | 71 | 355 | 1.7 | 6.1 | 0.00 | 0.00 | 0.00 | 72 | 1011.6 |
| 20260904225626 | 71 | 12 | 0.0 | 0.0 | 0.00 | 0.00 | 0.00 | 71 | 1011.6 |
| 20260904225126 | 71 | 18 | 0.0 | 0.0 | 0.00 | 0.00 | 0.00 | 71 | 1011.6 |
| 20260904224626 | 72 | 355 | 0.0 | 0.0 | 0.00 | 0.00 | 0.00 | 71 | 1011.5 |
| 20260904223121 | 72 | 355 | 0.9 | 4.3 | 0.00 | 0.00 | 0.00 | 70 | 1011.5 |
| 20260904222620 | 72 | 340 | 0.0 | 2.6 | 0.00 | 0.00 | 0.00 | 70 | 1011.6 |
| 20260904222117 | 73 | 355 | 0.9 | 6.1 | 0.00 | 0.00 | 0.00 | 70 | 1011.7 |
| 20260904220616 | 73 | 350 | 1.7 | 5.2 | 0.00 | 0.00 | 0.00 | 70 | 1011.8 |
| 20260904220116 | 73 | 313 | 1.7 | 6.1 | 0.00 | 0.00 | 0.00 | 70 | 1011.7 |
| 20260904215616 | 73 | 11 | 0.9 | 6.1 | 0.00 | 0.00 | 0.00 | 71 | 1011.8 |
| 20260904215115 | 73 | 5 | 0.9 | 4.3 | 0.00 | 0.00 | 0.00 | 70 | 1011.7 |
| 20260904214610 | 73 | 10 | 1.7 | 6.1 | 0.00 | 0.00 | 0.00 | 70 | 1011.7 |
| 20260904213557 | 73 | 15 | 0.0 | 0.9 | 0.00 | 0.00 | 0.00 | 70 | 1011.7 |
| 20260904212039 | 74 | 15 | 3.5 | 7.8 | 0.00 | 0.00 | 0.00 | 66 | 1011.6 |
| 20260904211533 | 74 | 14 | 1.7 | 7.0 | 0.00 | 0.00 | 0.00 | 66 | 1011.6 |
| 20260904211028 | 75 | 36 | 2.6 | 7.8 | 0.00 | 0.00 | 0.00 | 65 | 1011.6 |
| 20260904210521 | 75 | 348 | 2.6 | 7.8 | 0.00 | 0.00 | 0.00 | 66 | 1011.7 |
| 20260904205003 | 76 | 9 | 2.6 | 7.8 | 0.00 | 0.00 | 0.00 | 66 | 1011.7 |
| 20260904204457 | 76 | 355 | 0.9 | 7.0 | 0.00 | 0.00 | 0.00 | 67 | 1011.7 |
| 20260904203952 | 75 | 324 | 0.0 | 4.3 | 0.00 | 0.00 | 0.00 | 67 | 1011.6 |
| 20260904203445 | 75 | 351 | 0.9 | 4.3 | 0.00 | 0.00 | 0.00 | 67 | 1011.7 |
| 20260904202940 | 75 | 17 | 1.7 | 7.0 | 0.00 | 0.00 | 0.00 | 66 | 1011.7 |
| 20260904202434 | 75 | 329 | 1.7 | 7.0 | 0.00 | 0.00 | 0.00 | 65 | 1011.8 |
| 20260904201926 | 76 | 355 | 1.7 | 7.0 | 0.00 | 0.00 | 0.00 | 66 | 1011.7 |
| 20260904201421 | 76 | 0 | 2.6 | 7.0 | 0.00 | 0.00 | 0.00 | 66 | 1011.8 |
| 20260904200915 | 75 | 0 | 1.7 | 7.0 | 0.00 | 0.00 | 0.00 | 66 | 1011.8 |
| 20260904200410 | 75 | 24 | 0.9 | 7.8 | 0.00 | 0.00 | 0.00 | 70 | 1011.9 |
| 20260904195903 | 75 | 325 | 0.9 | 7.8 | 0.00 | 0.00 | 0.00 | 67 | 1012.0 |
| 20260904195357 | 75 | 11 | 0.0 | 0.9 | 0.00 | 0.00 | 0.00 | 71 | 1012.1 |
| 20260904194346 | 75 | 0 | 0.0 | 3.5 | 0.00 | 0.00 | 0.00 | 67 | 1012.2 |
| 20260904193840 | 75 | 16 | 1.7 | 7.8 | 0.00 | 0.00 | 0.00 | 68 | 1012.2 |
| 20260904193334 | 75 | 5 | 3.5 | 8.7 | 0.00 | 0.00 | 0.00 | 66 | 1012.1 |
| 20260904192321 | 75 | 338 | 3.5 | 10.4 | 0.00 | 0.00 | 0.00 | 67 | 1012.0 |
| 20260904191815 | 75 | 355 | 3.5 | 7.8 | 0.00 | 0.00 | 0.00 | 67 | 1012.0 |
| 20260904191309 | 75 | 5 | 3.5 | 8.7 | 0.00 | 0.00 | 0.00 | 65 | 1012.1 |
| 20260904190803 | 76 | 333 | 1.7 | 8.7 | 0.00 | 0.00 | 0.00 | 65 | 1012.1 |
| 20260904190259 | 76 | 348 | 1.7 | 8.7 | 0.00 | 0.00 | 0.00 | 65 | 1012.1 |
| 20260904185752 | 76 | 355 | 1.7 | 8.7 | 0.00 | 0.00 | 0.00 | 65 | 1012.2 |
| 20260904185245 | 76 | 332 | 0.9 | 8.7 | 0.00 | 0.00 | 0.00 | 64 | 1012.2 |